GIA009 WIII-WIOO

Flight info

Callsign GIA009
Flight time 1h 17m
Altitude 35000
Route ABASA W14 LAKUN
Aircraft B738/M-SDE2E3FGHIRWXY/LB1

Departure

Time 2026-04-18 04:13
Airport Soekarno-Hatta International Airport (WIII)

Arrival

Time 2026-04-18 05:30
Airport Supadio International Airport (WIOO)
Time Latitude Longitude Altitude Speed Heading
2026-04-18 04:04 -6.11805 106.66039 35 ft 0 kts 318°
2026-04-18 04:05 -6.11787 106.66025 37 ft 8 kts 324°
2026-04-18 04:06 -6.11712 106.65989 37 ft 16 kts 337°
2026-04-18 04:06 -6.11596 106.65940 35 ft 17 kts 334°
2026-04-18 04:06 -6.11520 106.65887 37 ft 11 kts 297°
2026-04-18 04:06 -6.11539 106.65784 37 ft 20 kts 248°
2026-04-18 04:07 -6.11598 106.65634 35 ft 24 kts 248°
2026-04-18 04:07 -6.11653 106.65494 37 ft 23 kts 248°
2026-04-18 04:07 -6.11714 106.65339 36 ft 25 kts 249°
2026-04-18 04:07 -6.11779 106.65178 38 ft 25 kts 248°
2026-04-18 04:08 -6.11848 106.65008 38 ft 27 kts 248°
2026-04-18 04:08 -6.11920 106.64826 38 ft 26 kts 249°
2026-04-18 04:08 -6.11978 106.64681 38 ft 21 kts 249°
2026-04-18 04:08 -6.12027 106.64558 38 ft 20 kts 248°
2026-04-18 04:09 -6.12082 106.64420 37 ft 22 kts 248°
2026-04-18 04:09 -6.12144 106.64266 38 ft 25 kts 249°
2026-04-18 04:09 -6.12202 106.64121 38 ft 21 kts 248°
2026-04-18 04:09 -6.12255 106.63978 38 ft 16 kts 264°
2026-04-18 04:10 -6.12223 106.63900 39 ft 9 kts 320°
2026-04-18 04:10 -6.12163 106.63895 40 ft 9 kts 18°
2026-04-18 04:10 -6.12124 106.63901 40 ft 4 kts 349°
2026-04-18 04:10 -6.12104 106.63903 40 ft 4 kts 22°
2026-04-18 04:11 -6.12087 106.63922 40 ft 1 kts 58°
2026-04-18 04:11 -6.12083 106.63929 40 ft 0 kts 67°
2026-04-18 04:12 -6.12078 106.63942 40 ft 18 kts 67°
2026-04-18 04:12 -6.11916 106.64347 39 ft 105 kts 68°
2026-04-18 04:12 -6.11551 106.65251 130 ft 168 kts 66°
2026-04-18 04:13 -6.11117 106.66438 805 ft 192 kts 72°
2026-04-18 04:13 -6.10601 106.67667 1781 ft 192 kts 51°
2026-04-18 04:13 -6.09617 106.68644 2577 ft 207 kts 46°
2026-04-18 04:13 -6.08542 106.69717 2814 ft 234 kts 47°
2026-04-18 04:14 -6.07333 106.70952 3136 ft 257 kts 47°
2026-04-18 04:14 -6.06074 106.72256 3940 ft 263 kts 48°
2026-04-18 04:14 -6.04805 106.73586 4558 ft 262 kts 48°
2026-04-18 04:14 -6.03538 106.74924 4851 ft 264 kts 48°
2026-04-18 04:15 -6.02149 106.76144 4934 ft 271 kts 31°
2026-04-18 04:15 -6.00426 106.76966 5657 ft 275 kts 26°
2026-04-18 04:15 -5.98689 106.77740 6548 ft 276 kts 26°
2026-04-18 04:15 -5.96922 106.78530 7358 ft 280 kts 26°
2026-04-18 04:16 -5.95132 106.79338 8147 ft 283 kts 26°
2026-04-18 04:16 -5.93327 106.80160 8957 ft 287 kts 26°
2026-04-18 04:16 -5.91502 106.80999 9745 ft 291 kts 26°
2026-04-18 04:16 -5.89648 106.81855 10464 ft 294 kts 26°
2026-04-18 04:17 -5.87783 106.82719 11210 ft 297 kts 27°
2026-04-18 04:17 -5.85889 106.83600 11926 ft 302 kts 27°
2026-04-18 04:17 -5.83974 106.84491 12668 ft 305 kts 27°
2026-04-18 04:17 -5.82041 106.85393 13415 ft 308 kts 27°
2026-04-18 04:18 -5.80087 106.86304 14083 ft 311 kts 27°
2026-04-18 04:18 -5.78108 106.87228 14721 ft 315 kts 27°
2026-04-18 04:18 -5.76108 106.88162 15344 ft 319 kts 27°
2026-04-18 04:18 -5.74084 106.89108 15995 ft 322 kts 27°
2026-04-18 04:19 -5.72044 106.90061 16634 ft 325 kts 27°
2026-04-18 04:19 -5.69983 106.91024 17256 ft 329 kts 27°
2026-04-18 04:19 -5.67896 106.91998 17876 ft 332 kts 27°
2026-04-18 04:19 -5.65788 106.92983 18455 ft 336 kts 27°
2026-04-18 04:20 -5.63687 106.93965 18976 ft 339 kts 27°
2026-04-18 04:20 -5.61534 106.94970 19516 ft 342 kts 27°
2026-04-18 04:20 -5.59364 106.95984 20040 ft 346 kts 27°
2026-04-18 04:20 -5.57168 106.97009 20572 ft 349 kts 27°
2026-04-18 04:21 -5.54954 106.98043 21097 ft 353 kts 27°
2026-04-18 04:21 -5.52719 106.99086 21620 ft 356 kts 27°
2026-04-18 04:21 -5.50464 107.00139 22133 ft 359 kts 27°
2026-04-18 04:21 -5.48182 107.01204 22642 ft 363 kts 27°
2026-04-18 04:22 -5.45883 107.02277 23138 ft 366 kts 27°
2026-04-18 04:22 -5.43565 107.03359 23603 ft 369 kts 27°
2026-04-18 04:22 -5.41221 107.04453 24026 ft 372 kts 27°
2026-04-18 04:22 -5.38896 107.05538 24465 ft 374 kts 27°
2026-04-18 04:23 -5.36530 107.06642 24849 ft 377 kts 27°
2026-04-18 04:23 -5.34158 107.07748 24878 ft 375 kts 27°
2026-04-18 04:23 -5.31779 107.08858 24913 ft 383 kts 27°
2026-04-18 04:23 -5.29315 107.10009 24931 ft 398 kts 27°
2026-04-18 04:24 -5.26764 107.11202 24929 ft 412 kts 27°
2026-04-18 04:24 -5.24128 107.12432 24929 ft 424 kts 27°
2026-04-18 04:24 -5.21414 107.13698 24928 ft 434 kts 27°
2026-04-18 04:24 -5.18667 107.14977 24917 ft 435 kts 27°
2026-04-18 04:25 -5.15935 107.16249 24906 ft 432 kts 27°
2026-04-18 04:25 -5.13209 107.17518 24898 ft 431 kts 27°
2026-04-18 04:25 -5.10520 107.18770 24901 ft 429 kts 27°
2026-04-18 04:25 -5.07817 107.20030 24905 ft 428 kts 27°
2026-04-18 04:26 -5.05108 107.21294 24905 ft 428 kts 27°
2026-04-18 04:26 -5.02408 107.22553 24909 ft 427 kts 27°
2026-04-18 04:26 -4.99712 107.23809 24908 ft 427 kts 27°
2026-04-18 04:26 -4.97009 107.25069 24910 ft 428 kts 27°
2026-04-18 04:27 -4.94262 107.26224 24908 ft 430 kts 20°
2026-04-18 04:27 -4.91369 107.26984 25029 ft 438 kts 15°
2026-04-18 04:27 -4.88389 107.27637 25403 ft 438 kts 14°
2026-04-18 04:27 -4.85399 107.28269 25793 ft 438 kts 14°
2026-04-18 04:28 -4.82406 107.28900 26137 ft 440 kts 14°
2026-04-18 04:28 -4.79403 107.29542 26439 ft 443 kts 14°
2026-04-18 04:28 -4.76386 107.30198 26741 ft 445 kts 14°
2026-04-18 04:28 -4.73356 107.30863 27051 ft 447 kts 14°
2026-04-18 04:29 -4.70313 107.31536 27369 ft 448 kts 14°
2026-04-18 04:29 -4.67258 107.32214 27670 ft 450 kts 14°
2026-04-18 04:29 -4.64188 107.32896 27972 ft 452 kts 14°
2026-04-18 04:29 -4.61107 107.33581 28255 ft 454 kts 14°
2026-04-18 04:30 -4.58060 107.34259 28532 ft 456 kts 14°
2026-04-18 04:30 -4.54947 107.34950 28811 ft 458 kts 14°
2026-04-18 04:30 -4.51836 107.35641 29081 ft 460 kts 14°
2026-04-18 04:30 -4.48694 107.36338 29349 ft 462 kts 14°
2026-04-18 04:31 -4.45557 107.37035 29604 ft 464 kts 14°
2026-04-18 04:31 -4.42393 107.37737 29860 ft 465 kts 14°
2026-04-18 04:31 -4.39223 107.38440 30086 ft 467 kts 14°
2026-04-18 04:31 -4.36047 107.39145 30297 ft 468 kts 14°
2026-04-18 04:32 -4.32861 107.39851 30513 ft 470 kts 14°
2026-04-18 04:32 -4.29662 107.40561 30715 ft 471 kts 14°
2026-04-18 04:32 -4.26456 107.41272 30917 ft 473 kts 14°
2026-04-18 04:32 -4.23277 107.41977 31116 ft 474 kts 14°
2026-04-18 04:33 -4.20052 107.42692 31308 ft 476 kts 14°
2026-04-18 04:33 -4.16813 107.43411 31497 ft 477 kts 14°
2026-04-18 04:33 -4.13567 107.44130 31688 ft 478 kts 14°
2026-04-18 04:33 -4.10314 107.44852 31902 ft 479 kts 14°
2026-04-18 04:34 -4.07062 107.45573 32184 ft 478 kts 14°
2026-04-18 04:34 -4.03819 107.46291 32487 ft 476 kts 14°
2026-04-18 04:34 -4.00590 107.47007 32766 ft 476 kts 14°
2026-04-18 04:34 -3.97358 107.47723 33032 ft 475 kts 14°
2026-04-18 04:35 -3.94129 107.48439 33297 ft 475 kts 13°
2026-04-18 04:35 -3.90906 107.49154 33578 ft 474 kts 13°
2026-04-18 04:35 -3.87685 107.49868 33867 ft 473 kts 13°
2026-04-18 04:35 -3.84472 107.50580 34126 ft 473 kts 13°
2026-04-18 04:36 -3.81258 107.51292 34352 ft 472 kts 13°
2026-04-18 04:36 -3.78052 107.52003 34569 ft 472 kts 13°
2026-04-18 04:36 -3.74849 107.52712 34814 ft 471 kts 13°
2026-04-18 04:37 -3.68487 107.54120 34898 ft 472 kts 13°
2026-04-18 04:37 -3.62071 107.55536 34900 ft 471 kts 13°
2026-04-18 04:38 -3.55661 107.56950 34902 ft 471 kts 13°
2026-04-18 04:38 -3.49258 107.58364 34898 ft 470 kts 13°
2026-04-18 04:39 -3.42865 107.59775 34896 ft 470 kts 13°
2026-04-18 04:39 -3.36479 107.61185 34896 ft 470 kts 13°
2026-04-18 04:40 -3.30135 107.62585 34895 ft 470 kts 13°
2026-04-18 04:40 -3.23750 107.63994 34893 ft 470 kts 13°
2026-04-18 04:41 -3.17362 107.65404 34895 ft 470 kts 13°
2026-04-18 04:41 -3.10967 107.66815 34896 ft 470 kts 13°
2026-04-18 04:42 -3.04566 107.68227 34896 ft 470 kts 13°
2026-04-18 04:42 -2.98169 107.69638 34897 ft 471 kts 13°
2026-04-18 04:43 -2.91773 107.71049 34892 ft 471 kts 13°
2026-04-18 04:43 -2.85369 107.72461 34892 ft 471 kts 13°
2026-04-18 04:44 -2.78993 107.73868 34899 ft 471 kts 13°
2026-04-18 04:44 -2.72647 107.75504 34892 ft 470 kts 22°
2026-04-18 04:45 -2.66909 107.78569 34905 ft 467 kts 33°
2026-04-18 04:45 -2.61519 107.81965 34877 ft 443 kts 33°
2026-04-18 04:45 -2.58948 107.83579 34878 ft 429 kts 33°
2026-04-18 04:46 -2.56452 107.85132 34874 ft 415 kts 33°
2026-04-18 04:46 -2.51634 107.88105 34907 ft 413 kts 33°
2026-04-18 04:47 -2.46664 107.91158 34918 ft 425 kts 33°
2026-04-18 04:47 -2.41545 107.94299 34915 ft 437 kts 33°
2026-04-18 04:48 -2.36288 107.97525 34914 ft 448 kts 33°
2026-04-18 04:48 -2.31017 108.00758 34882 ft 433 kts 33°
2026-04-18 04:48 -2.28488 108.02308 34876 ft 419 kts 33°
2026-04-18 04:49 -2.26039 108.03810 34880 ft 406 kts 33°
2026-04-18 04:49 -2.23662 108.05269 34872 ft 393 kts 33°
2026-04-18 04:49 -2.21385 108.06668 34891 ft 388 kts 33°
2026-04-18 04:50 -2.16744 108.09517 34910 ft 395 kts 33°
2026-04-18 04:50 -2.12017 108.12426 34908 ft 401 kts 33°
2026-04-18 04:51 -2.07216 108.15381 34911 ft 411 kts 33°
2026-04-18 04:51 -2.03106 108.17908 34915 ft 422 kts 33°
2026-04-18 04:52 -1.98191 108.20918 34859 ft 402 kts 33°
2026-04-18 04:52 -1.95834 108.22360 34699 ft 394 kts 33°
2026-04-18 04:52 -1.93511 108.23782 34432 ft 390 kts 33°
2026-04-18 04:52 -1.91206 108.25195 34085 ft 388 kts 33°
2026-04-18 04:53 -1.88899 108.26609 33474 ft 393 kts 33°
2026-04-18 04:53 -1.86528 108.28064 32677 ft 403 kts 33°
2026-04-18 04:53 -1.84163 108.29514 32517 ft 395 kts 33°
2026-04-18 04:53 -1.81806 108.30959 31798 ft 402 kts 33°
2026-04-18 04:54 -1.79401 108.32434 31148 ft 408 kts 33°
2026-04-18 04:54 -1.76978 108.33919 30751 ft 407 kts 33°
2026-04-18 04:54 -1.74578 108.35389 30466 ft 402 kts 33°
2026-04-18 04:54 -1.72191 108.36852 29895 ft 405 kts 33°
2026-04-18 04:55 -1.69757 108.38344 28924 ft 416 kts 33°
2026-04-18 04:55 -1.67275 108.39866 28081 ft 418 kts 33°
2026-04-18 04:55 -1.64802 108.41382 27254 ft 416 kts 33°
2026-04-18 04:56 -1.59970 108.44340 26289 ft 397 kts 33°
2026-04-18 04:56 -1.57635 108.45770 25659 ft 393 kts 33°
2026-04-18 04:56 -1.55304 108.47198 24975 ft 392 kts 33°
2026-04-18 04:56 -1.52999 108.48610 24475 ft 385 kts 33°
2026-04-18 04:57 -1.50735 108.49998 24012 ft 378 kts 33°
2026-04-18 04:57 -1.48534 108.51346 23812 ft 364 kts 33°
2026-04-18 04:57 -1.46410 108.52646 23576 ft 352 kts 33°
2026-04-18 04:57 -1.44358 108.53903 23316 ft 341 kts 33°
2026-04-18 04:58 -1.42363 108.55125 23044 ft 330 kts 33°
2026-04-18 04:58 -1.40436 108.56306 22775 ft 320 kts 33°
2026-04-18 04:58 -1.38562 108.57453 22501 ft 311 kts 33°
2026-04-18 04:58 -1.36728 108.58578 22245 ft 307 kts 33°
2026-04-18 04:59 -1.34918 108.59687 22012 ft 304 kts 33°
2026-04-18 04:59 -1.33127 108.60785 21779 ft 301 kts 33°
2026-04-18 04:59 -1.31341 108.61880 21473 ft 301 kts 33°
2026-04-18 04:59 -1.29560 108.62972 21165 ft 300 kts 33°
2026-04-18 05:00 -1.27783 108.64061 20857 ft 299 kts 33°
2026-04-18 05:00 -1.22975 108.67007 20038 ft 298 kts 33°
2026-04-18 05:00 -1.16005 108.71277 18844 ft 298 kts 33°
2026-04-18 05:00 -1.11786 108.73862 18019 ft 302 kts 33°
2026-04-18 05:01 -1.09989 108.74962 17645 ft 300 kts 33°
2026-04-18 05:01 -1.08079 108.76131 17253 ft 294 kts 33°
2026-04-18 05:01 -1.01753 108.80005 16055 ft 274 kts 33°
2026-04-18 05:01 -0.97560 108.82574 15337 ft 261 kts 33°
2026-04-18 05:02 -0.95848 108.83623 15094 ft 267 kts 33°
2026-04-18 05:02 -0.91614 108.86219 14411 ft 284 kts 32°
2026-04-18 05:02 -0.89899 108.87269 14046 ft 289 kts 32°
2026-04-18 05:02 -0.88174 108.88325 13708 ft 291 kts 32°
2026-04-18 05:03 -0.86495 108.89415 13366 ft 285 kts 36°
2026-04-18 05:03 -0.84925 108.90544 13066 ft 279 kts 37°
2026-04-18 05:03 -0.81290 108.93233 12317 ft 266 kts 37°
2026-04-18 05:03 -0.76332 108.96887 11419 ft 245 kts 36°
2026-04-18 05:04 -0.74978 108.97880 11293 ft 243 kts 36°
2026-04-18 05:04 -0.71341 109.00543 10764 ft 266 kts 36°
2026-04-18 05:04 -0.69742 109.01713 10344 ft 277 kts 36°
2026-04-18 05:04 -0.68186 109.02851 10024 ft 277 kts 35°
2026-04-18 05:05 -0.66639 109.03982 9725 ft 271 kts 35°
2026-04-18 05:05 -0.65134 109.05083 9406 ft 265 kts 35°
2026-04-18 05:05 -0.63658 109.06161 9115 ft 259 kts 35°
2026-04-18 05:05 -0.60037 109.08809 8390 ft 245 kts 35°
2026-04-18 05:06 -0.54773 109.12657 7397 ft 228 kts 35°
2026-04-18 05:06 -0.49605 109.16432 6559 ft 233 kts 35°
2026-04-18 05:06 -0.47111 109.18372 5967 ft 243 kts 51°
2026-04-18 05:06 -0.46312 109.19849 5747 ft 241 kts 66°
2026-04-18 05:07 -0.45664 109.21430 5481 ft 239 kts 67°
2026-04-18 05:07 -0.43609 109.26640 4594 ft 218 kts 67°
2026-04-18 05:07 -0.42885 109.28496 4475 ft 208 kts 67°
2026-04-18 05:07 -0.42359 109.29832 4368 ft 204 kts 67°
2026-04-18 05:08 -0.41559 109.30942 4150 ft 197 kts 28°
2026-04-18 05:08 -0.40313 109.31403 3943 ft 193 kts 18°
2026-04-18 05:08 -0.39002 109.31844 3464 ft 203 kts 18°
2026-04-18 05:08 -0.37663 109.32318 2990 ft 206 kts 20°
2026-04-18 05:09 -0.36370 109.32792 2899 ft 188 kts 21°
2026-04-18 05:09 -0.33261 109.33978 2915 ft 187 kts 21°
2026-04-18 05:09 -0.31751 109.34597 2907 ft 189 kts 30°
2026-04-18 05:09 -0.30598 109.35226 2905 ft 190 kts 22°
2026-04-18 05:10 -0.29280 109.35716 2907 ft 189 kts 20°
2026-04-18 05:10 -0.28098 109.36272 2883 ft 187 kts 41°
2026-04-18 05:10 -0.27435 109.37360 2914 ft 185 kts 69°
2026-04-18 05:10 -0.26891 109.38522 2905 ft 184 kts 60°
2026-04-18 05:11 -0.26292 109.39645 2875 ft 185 kts 61°
2026-04-18 05:11 -0.25711 109.40743 2772 ft 172 kts 61°
2026-04-18 05:11 -0.25161 109.41787 2502 ft 168 kts 61°
2026-04-18 05:11 -0.24614 109.42827 2456 ft 172 kts 61°
2026-04-18 05:12 -0.24052 109.43884 2412 ft 172 kts 62°
2026-04-18 05:12 -0.23398 109.44855 2376 ft 168 kts 33°
2026-04-18 05:12 -0.22292 109.45029 2412 ft 170 kts 339°
2026-04-18 05:12 -0.21316 109.44373 2400 ft 169 kts 320°
2026-04-18 05:13 -0.20556 109.43476 1962 ft 171 kts 302°
2026-04-18 05:13 -0.19931 109.42420 1359 ft 178 kts 307°
2026-04-18 05:13 -0.19068 109.41660 1192 ft 159 kts 337°
2026-04-18 05:13 -0.18023 109.41392 841 ft 158 kts 351°
2026-04-18 05:14 -0.16954 109.41138 430 ft 159 kts 341°
2026-04-18 05:14 -0.15941 109.40711 112 ft 155 kts 341°
2026-04-18 05:14 -0.14995 109.40346 28 ft 135 kts 341°
2026-04-18 05:14 -0.14064 109.40007 393 ft 149 kts 341°
2026-04-18 05:15 -0.13029 109.39630 1101 ft 170 kts 340°
2026-04-18 05:15 -0.11868 109.39180 2039 ft 185 kts 336°
2026-04-18 05:15 -0.10701 109.38599 3036 ft 189 kts 333°
2026-04-18 05:15 -0.09460 109.37957 3384 ft 215 kts 334°
2026-04-18 05:16 -0.08090 109.37247 3308 ft 224 kts 333°
2026-04-18 05:16 -0.06721 109.36518 3219 ft 221 kts 333°
2026-04-18 05:16 -0.05368 109.35786 3077 ft 221 kts 332°
2026-04-18 05:16 -0.03984 109.35032 3013 ft 220 kts 332°
2026-04-18 05:17 -0.01674 109.33721 2987 ft 217 kts 320°
2026-04-18 05:17 -0.00520 109.32746 2986 ft 214 kts 334°
2026-04-18 05:17 0.00886 109.32438 3017 ft 211 kts
2026-04-18 05:17 0.02242 109.32960 3008 ft 212 kts 40°
2026-04-18 05:18 0.03053 109.34182 3005 ft 217 kts 75°
2026-04-18 05:18 0.03029 109.35677 3005 ft 220 kts 108°
2026-04-18 05:18 0.02159 109.36923 3003 ft 223 kts 142°
2026-04-18 05:18 0.00783 109.37644 3002 ft 225 kts 155°
2026-04-18 05:19 -0.00679 109.38240 3003 ft 228 kts 156°
2026-04-18 05:19 -0.02292 109.38886 3043 ft 250 kts 157°
2026-04-18 05:19 -0.04172 109.39639 3006 ft 258 kts 157°
2026-04-18 05:19 -0.07488 109.40964 3000 ft 256 kts 157°
2026-04-18 05:20 -0.09324 109.41703 2976 ft 255 kts 157°
2026-04-18 05:20 -0.10957 109.42360 2997 ft 251 kts 158°
2026-04-18 05:20 -0.14241 109.43647 2976 ft 245 kts 159°
2026-04-18 05:20 -0.16496 109.44536 2987 ft 243 kts 157°
2026-04-18 05:21 -0.19103 109.45564 2992 ft 245 kts 156°
2026-04-18 05:21 -0.20812 109.46252 3015 ft 250 kts 157°
2026-04-18 05:21 -0.22442 109.46911 2997 ft 254 kts 157°
2026-04-18 05:21 -0.24073 109.47571 3006 ft 252 kts 156°
2026-04-18 05:22 -0.25699 109.48226 2996 ft 251 kts 156°
2026-04-18 05:22 -0.27318 109.48875 2988 ft 249 kts 156°
2026-04-18 05:22 -0.28917 109.49519 2998 ft 247 kts 157°
2026-04-18 05:22 -0.30504 109.50163 3000 ft 245 kts 158°
2026-04-18 05:23 -0.32089 109.50803 2993 ft 245 kts 158°
2026-04-18 05:23 -0.33681 109.51447 3001 ft 249 kts 158°
2026-04-18 05:23 -0.35271 109.52096 3004 ft 251 kts 159°
2026-04-18 05:23 -0.36988 109.52355 2987 ft 251 kts 187°
2026-04-18 05:24 -0.38571 109.51745 2984 ft 241 kts 218°
2026-04-18 05:24 -0.39549 109.50480 2983 ft 225 kts 251°
2026-04-18 05:24 -0.39670 109.48997 2952 ft 211 kts 285°
2026-04-18 05:24 -0.38963 109.47793 2848 ft 198 kts 322°
2026-04-18 05:25 -0.37765 109.47230 2784 ft 185 kts 344°
2026-04-18 05:25 -0.36541 109.46868 2475 ft 188 kts 344°
2026-04-18 05:25 -0.35252 109.46492 2096 ft 195 kts 344°
2026-04-18 05:25 -0.33988 109.46126 2024 ft 182 kts 344°
2026-04-18 05:26 -0.32806 109.45785 2016 ft 176 kts 344°
2026-04-18 05:26 -0.31630 109.45446 2001 ft 176 kts 344°
2026-04-18 05:26 -0.30463 109.45109 1991 ft 173 kts 344°
2026-04-18 05:26 -0.29312 109.44777 1893 ft 171 kts 344°
2026-04-18 05:27 -0.28167 109.44447 1610 ft 172 kts 344°
2026-04-18 05:27 -0.27019 109.44118 1367 ft 170 kts 344°
2026-04-18 05:27 -0.25893 109.43795 1215 ft 168 kts 344°
2026-04-18 05:27 -0.24793 109.43534 1051 ft 161 kts 352°
2026-04-18 05:28 -0.23681 109.43395 1099 ft 161 kts 352°
2026-04-18 05:28 -0.22585 109.43186 1152 ft 153 kts 347°
2026-04-18 05:28 -0.21569 109.42916 1012 ft 151 kts 343°
2026-04-18 05:28 -0.20570 109.42593 866 ft 149 kts 341°
2026-04-18 05:29 -0.19613 109.42241 713 ft 145 kts 338°
2026-04-18 05:29 -0.18684 109.41854 556 ft 144 kts 339°
2026-04-18 05:29 -0.17770 109.41466 413 ft 141 kts 339°
2026-04-18 05:29 -0.16862 109.41107 241 ft 140 kts 340°
2026-04-18 05:30 -0.15968 109.40746 39 ft 135 kts 339°
2026-04-18 05:30 -0.15179 109.40431 21 ft 103 kts 335°
2026-04-18 05:30 -0.14660 109.40214 21 ft 52 kts 337°
2026-04-18 05:30 -0.14515 109.40154 18 ft 15 kts 342°
2026-04-18 05:31 -0.14436 109.40176 19 ft 12 kts 64°
2026-04-18 05:31 -0.14453 109.40229 19 ft 9 kts 137°
2026-04-18 05:31 -0.14520 109.40261 19 ft 12 kts 158°
2026-04-18 05:31 -0.14594 109.40288 19 ft 11 kts 159°
2026-04-18 05:32 -0.14665 109.40317 19 ft 11 kts 157°
2026-04-18 05:32 -0.14698 109.40343 19 ft 4 kts 118°
2026-04-18 05:32 -0.14701 109.40354 19 ft 0 kts 96°
2026-04-18 05:33 -0.14700 109.40356 19 ft 1 kts 85°
2026-04-18 05:33 -0.14697 109.40367 19 ft 2 kts 72°
2026-04-18 05:33 -0.14697 109.40368 19 ft 0 kts 72°